{"data":{"norad_id":65412,"intl_designator":"2025-192J","name":"STARLINK-34992","alt_names":[],"object_type":"PAYLOAD","status":"ACTIVE","operator":null,"country":"US","launch_date":"2025-08-31","launch_site_code":"AFETR","launch_vehicle":null,"mission":null,"orbit_class":"UNKNOWN","rcs_meters":null,"size_class":null,"mass_kg":null,"dimensions":null,"purposes":["comms"],"wikipedia_slug":null,"has_3d_model":false,"image_url":null,"decayed_at":null,"tle_current":{"epoch":"2026-05-24T17:37:34.906656Z","epoch_age_seconds":104920,"freshness":"FRESH","line1":"1 65412U 25192J   26144.73443179  .00021045  00000+0  68757-3 0  9999","line2":"2 65412  53.1592 238.6629 0000668  76.5449 283.5627 15.31721188 41012","mean_motion":15.31721188,"eccentricity":6.68e-5,"inclination_deg":53.1592,"raan_deg":238.6629,"arg_perigee_deg":76.5449,"mean_anomaly_deg":283.5627,"bstar":0.00068757,"rev_number":4101,"period_min":94.011887495024,"perigee_km":470.21933486403,"apogee_km":471.13433639247,"semimajor_km":6848.8138356283,"source":"CELESTRAK","updated_at":"2026-05-25T13:38:20.800946Z"}}}